"Pseudo-MPEC" for C0EAGX5

Created 2022 Nov 26 13:22:06 UT using Find_Orb

Click here for an explanation of pseudo-MPECs

 
 Astrometry: 
     C0EAGX5* C2022 11 24w0wAGk^hFW/n-,#K=sqia:-PvOx(kCYAstrometryV@!XAF/lsr`V00
     C0EAGX5  C2022 11 24[%c`v\redacted;WexclickKsNGHPnI/JDd(?0x)KUb`Z%F1Wv:)V00
     C0EAGX5  C2022 11 24oBPr#ZfD6J.rDsJMuu(8\==\N3:$MwNJ'FMfS`VXHNAx)qMe/c\FV00
     C0EAGX5  C2022 11 24d::iAk=krcr4ON+^w3:ewilbxVEYV/MpRn;o:here322;lPPMgDFV00
     C0EAGX5 mC2022 11 24RAiE^hU)!1lN[EBvn6c'#evowCdDCqfgpJUK-V6S^KRZ!Gqd(tP$V00
     C0EAGX5 mC2022 11 24CFUCC@hAk..a2=f?ML1'%k(l.6vf4vBW@E;-S#ne@4^G612qjWypV00
     C0EAGX5 mC2022 11 24tk$dBjxfV^(US5cV]NPqgQaRc2Bu1loWJ3y:2=[BVcw/S`@jiJ0WV00
     C0EAGX5 mC2022 11 24b?j^:!PcXwWncu)+Qm\:wZjf+,Pad8Z.Pu/Z8B45y\xNf]YY@t3=V00
     C0EAGX5 |C2022 11 25.#]md3T(%i6/dEiVgWlA9Do%()8#%s1)0YGCgOVe1tdTQ,1w'$AP807
     C0EAGX5 |C2022 11 25*#YvY\RH_',9n5;%TyrZP$EM+JI6.Lo*,R`8TEU5+n]@dbNforDb807
     C0EAGX5 |C2022 11 25G%lK$t1NCG\IpAU'HV'WEf%)aCE5h-\mTbqNMqN\@D#PG_RW@/#,807
     C0EAGX5 mC2022 11 25h`m2+]m?mG[u.F\U@[2J(q9k1pxVE2b\fUYV7Q+FJQ\%Kq7vScxmV00
     C0EAGX5 mC2022 11 25Tdc,@,*\hpkD)G\ZR\^]r=.jUexplanation*Cr]j!Tg?NsI0;sUV00
     C0EAGX5 mC2022 11 25`v6.XOk*lSN!8LsuTvpAoxnrb/k=oG?E7'Wfrb3L64bb9Yi)7^(+V00
     C0EAGX5 mC2022 11 25Vj:!bd[/9cgZ[)ma?'%\ir;_aDvy'UKv03`2noLW6`m?S.944u$`V00
     C0EAGX5 KC2022 11 26j=h:!oA1@qA-W.!MZY=t]M4vaK?c;]e]w@RrQLjMY![[(onFiN)bH21
     C0EAGX5 KC2022 11 26%WePw(E4G(eg5]sa'Fu)[V1P$1?R:5nsF3#w;H1Qv^@41';1xl2dH21
     C0EAGX5 KC2022 11 26Bju;vj*kcP$gNti_6t6N:J_v?pxrbe6^/1S,U]ws4U:O)Uf$kn;TH21

Station data:
(807) Cerro Tololo Observatory, La Serena  (S30.169133 W70.805900)  Chile.
   Observer R. Holmes. 0.61-m f/6.5 astrograph + CCD.
(H21) Astronomical Research Observatory, Westfield  (N39.483054 W87.968270)
   US/Illinois.  Observer R. Holmes. Measurers S. Foglia, L. Buzzi, T.
   Linder, R. Holmes. 0.76-m f/3.0 astrograph + CCD0.81-m f/4.0 astrograph +
   CCD0.61-m f/4.5 astrograph + CCD0.40-m f/5.32 astrograph + CCD.
(V00) Kitt Peak-Bok  (N31.963125 W111.600190)  US/Arizona.  Observers T. A.
   Pruyne, B. M. Africano, E. J. Christensen, G. A. Farneth, D. C. Fuls, A.
   R. Gibbs, A. D. Grauer, H. Gröller, J. A. Johnson, R. A. Kowalski, S. M.
   Larson, G. J. Leonard, D. Rankin, R. L. Seaman, F. C. Shelly, K. W.
   Wierzchoś. 2.25-m reflector + CCD.

Orbital elements:  C0EAGX5
   Perihelion 2022 Oct 12.49178 +/- 0.00743 TT = 11:48:09 (JD 2459864.99178)
Epoch 2022 Nov 26.0 TT = JDT 2459909.5   Earth MOID: 0.0832   AutoNEOCP
M  19.00238824 +/- 0.09             (J2000 ecliptic)
n   0.42694109 +/- 0.00213          Peri.  141.76962 +/- 0.030
a   1.74672314 +/- 0.00582          Node   237.88035 +/- 0.012
e   0.4075526 +/- 0.00185           Incl.   10.35134 +/- 0.043
P   2.31/843.19d           H 24.9   G  0.15   U  8.6
q 1.03484144 +/- 0.000445    Q 2.45860483 +/- 0.0114
From 18 observations 2022 Nov. 24-26 (46.3 hr); mean residual 0".19
Residuals in arcseconds: 
221124 V00  .25-  .12+    221124 V00  .21-  .09-    221125 V00  .19-  .19+    
221124 V00  .24+  .08-    221124 V00  .05-  .05+    221125 V00  .02-  .34-    
221124 V00  .14+  .18-    221125 807  .47+  .07+    221125 V00  .15+  .16+    
221124 V00  .10-  .04-    221125 807  .27+  .09-    221126 H21  .28-  .09-    
221124 V00  .23-  .17+    221125 807  .07+  .04-    221126 H21  .23-  .15+    
221124 V00  .28-  .13+    221125 V00  .20-  .04-    221126 H21  .21+  .03-    

Ephemerides (geocentric):
Date (UTC) HH   RA             Dec           delta  r     elong  mag " sig PA
---- --------  ------------   ------------  ------ ------ -----  --- --------
2022 11 26 13  05 26 39.334   +12 14 34.97  .16115 1.1391 159.2 22.2 .227   6
2022 11 26 14  05 26 38.223   +12 12 14.94  .16132 1.1393 159.2 22.2 .245   5
2022 11 26 15  05 26 37.110   +12 09 55.26  .16150 1.1394 159.3 22.2 .264   4
2022 11 26 16  05 26 35.994   +12 07 35.91  .16167 1.1396 159.3 22.2 .284   3
2022 11 26 17  05 26 34.877   +12 05 16.90  .16185 1.1398 159.3 22.2 .304   3
2022 11 26 18  05 26 33.757   +12 02 58.24  .16202 1.1400 159.3 22.2 .324   2
2022 11 26 19  05 26 32.635   +12 00 39.91  .16220 1.1402 159.3 22.2 .345   2
2022 11 26 20  05 26 31.511   +11 58 21.92  .16237 1.1403 159.4 22.2 .367   1
2022 11 26 21  05 26 30.385   +11 56 04.27  .16255 1.1405 159.4 22.2 .389   1
2022 11 26 22  05 26 29.256   +11 53 46.96  .16272 1.1407 159.4 22.2 .412   1
2022 11 26 23  05 26 28.126   +11 51 29.98  .16290 1.1409 159.4 22.2 .435   0
2022 11 27 00  05 26 26.993   +11 49 13.34  .16308 1.1410 159.4 22.2 .459   0
2022 11 27 01  05 26 25.859   +11 46 57.03  .16325 1.1412 159.5 22.2 .483   0
2022 11 27 02  05 26 24.722   +11 44 41.06  .16343 1.1414 159.5 22.2 .508   0
2022 11 27 03  05 26 23.583   +11 42 25.43  .16360 1.1416 159.5 22.2 .533 179
2022 11 27 04  05 26 22.443   +11 40 10.13  .16378 1.1418 159.5 22.2 .559 179
2022 11 27 05  05 26 21.300   +11 37 55.16  .16396 1.1419 159.6 22.2 .585 179
2022 11 27 06  05 26 20.156   +11 35 40.52  .16413 1.1421 159.6 22.2 .612 179
2022 11 27 07  05 26 19.009   +11 33 26.22  .16431 1.1423 159.6 22.2 .640 179
2022 11 27 08  05 26 17.861   +11 31 12.25  .16449 1.1425 159.6 22.2 .667 179
2022 11 27 09  05 26 16.711   +11 28 58.61  .16467 1.1426 159.6 22.2 .696 178
2022 11 27 10  05 26 15.558   +11 26 45.30  .16485 1.1428 159.6 22.2 .724 178
2022 11 27 11  05 26 14.404   +11 24 32.32  .16502 1.1430 159.7 22.2 .754 178
2022 11 27 12  05 26 13.249   +11 22 19.67  .16520 1.1432 159.7 22.2 .783 178
2022 11 27 13  05 26 12.091   +11 20 07.35  .16538 1.1434 159.7 22.2 .814 178
2022 11 27 14  05 26 10.931   +11 17 55.36  .16556 1.1435 159.7 22.2 .844 178
2022 11 27 15  05 26 09.770   +11 15 43.69  .16574 1.1437 159.7 22.2 .876 178
2022 11 27 16  05 26 08.607   +11 13 32.35  .16592 1.1439 159.8 22.2 .907 178
2022 11 27 17  05 26 07.442   +11 11 21.34  .16610 1.1441 159.8 22.2 .939 178
2022 11 27 18  05 26 06.276   +11 09 10.66  .16627 1.1443 159.8 22.2 .972 178
2022 11 27 19  05 26 05.108   +11 07 00.30  .16645 1.1444 159.8 22.2 1.00 178
2022 11 27 20  05 26 03.938   +11 04 50.26  .16663 1.1446 159.8 22.2 1.04 178
2022 11 27 21  05 26 02.766   +11 02 40.55  .16681 1.1448 159.9 22.2 1.07 178
2022 11 27 22  05 26 01.593   +11 00 31.17  .16699 1.1450 159.9 22.2 1.11 178
2022 11 27 23  05 26 00.418   +10 58 22.10  .16717 1.1452 159.9 22.2 1.14 177
2022 11 28 00  05 25 59.241   +10 56 13.36  .16736 1.1453 159.9 22.2 1.18 177
2022 11 28 01  05 25 58.063   +10 54 04.95  .16754 1.1455 159.9 22.2 1.21 177
2022 11 28 02  05 25 56.884   +10 51 56.85  .16772 1.1457 159.9 22.2 1.25 177
2022 11 28 03  05 25 55.702   +10 49 49.07  .16790 1.1459 160.0 22.2 1.28 177
2022 11 28 04  05 25 54.520   +10 47 41.62  .16808 1.1461 160.0 22.3 1.32 177
2022 11 28 05  05 25 53.335   +10 45 34.49  .16826 1.1462 160.0 22.3 1.36 177
2022 11 28 06  05 25 52.149   +10 43 27.67  .16844 1.1464 160.0 22.3 1.40 177
2022 11 28 07  05 25 50.962   +10 41 21.17  .16862 1.1466 160.0 22.3 1.44 177
2022 11 28 08  05 25 49.773   +10 39 15.00  .16881 1.1468 160.0 22.3 1.47 177
2022 11 28 09  05 25 48.583   +10 37 09.14  .16899 1.1470 160.1 22.3 1.51 177
2022 11 28 10  05 25 47.391   +10 35 03.59  .16917 1.1471 160.1 22.3 1.55 177
2022 11 28 11  05 25 46.198   +10 32 58.37  .16935 1.1473 160.1 22.3 1.59 177
2022 11 28 12  05 25 45.003   +10 30 53.46  .16954 1.1475 160.1 22.3 1.63 177